JBU1695 KMCO-MROC

Flight info

Callsign JBU1695
Flight time 2h 49m
Altitude 35000
Route FSHUN4 PLUMR DCT FEMID Q79 VAULT/N0445F360 Q79 MCLAW Y442 FUNDI/N0444F350 UM335 ALVEK/N0449F360 DCT SELEK/N0448F350 UZ403 PIRAS BARRA3P
Aircraft A320/M-SDE3FGHIRWY/LB1

Departure

Time 2026-04-26 15:27
Airport Orlando International Airport (KMCO)

Arrival

Time 2026-04-26 18:16
Airport Juan Santamaría International Airport (MROC)
Time Latitude Longitude Altitude Speed Heading
2026-04-26 14:23 28.42634 -81.31441 102 ft 0 kts 323°
2026-04-26 15:10 28.42633 -81.31441 101 ft 2 kts 323°
2026-04-26 15:11 28.42616 -81.31428 101 ft 3 kts 339°
2026-04-26 15:11 28.42595 -81.31421 100 ft 3 kts 349°
2026-04-26 15:11 28.42574 -81.31417 100 ft 3 kts 344°
2026-04-26 15:11 28.42557 -81.31411 100 ft 3 kts 328°
2026-04-26 15:12 28.42542 -81.31395 100 ft 3 kts 287°
2026-04-26 15:12 28.42540 -81.31372 101 ft 3 kts 260°
2026-04-26 15:12 28.42544 -81.31350 100 ft 3 kts 258°
2026-04-26 15:12 28.42548 -81.31325 99 ft 3 kts 259°
2026-04-26 15:13 28.42550 -81.31312 100 ft 0 kts 257°
2026-04-26 15:18 28.42550 -81.31314 100 ft 1 kts 257°
2026-04-26 15:18 28.42549 -81.31319 100 ft 1 kts 258°
2026-04-26 15:18 28.42540 -81.31369 101 ft 9 kts 258°
2026-04-26 15:19 28.42525 -81.31451 101 ft 13 kts 258°
2026-04-26 15:19 28.42503 -81.31560 101 ft 14 kts 254°
2026-04-26 15:19 28.42445 -81.31636 103 ft 13 kts 214°
2026-04-26 15:19 28.42364 -81.31695 104 ft 14 kts 215°
2026-04-26 15:20 28.42347 -81.31765 105 ft 9 kts 270°
2026-04-26 15:20 28.42358 -81.31823 105 ft 6 kts 310°
2026-04-26 15:20 28.42409 -81.31831 106 ft 11 kts 358°
2026-04-26 15:20 28.42510 -81.31833 106 ft 16 kts 359°
2026-04-26 15:21 28.42624 -81.31834 106 ft 17 kts 359°
2026-04-26 15:21 28.42750 -81.31837 105 ft 19 kts 358°
2026-04-26 15:21 28.42897 -81.31837 102 ft 23 kts
2026-04-26 15:21 28.43060 -81.31839 102 ft 24 kts 358°
2026-04-26 15:22 28.43228 -81.31841 101 ft 22 kts 360°
2026-04-26 15:22 28.43372 -81.31841 101 ft 21 kts
2026-04-26 15:22 28.43512 -81.31846 104 ft 20 kts
2026-04-26 15:22 28.43654 -81.31847 105 ft 21 kts 358°
2026-04-26 15:23 28.43805 -81.31848 107 ft 22 kts 359°
2026-04-26 15:23 28.43926 -81.31850 108 ft 14 kts 349°
2026-04-26 15:23 28.44020 -81.31886 110 ft 15 kts 341°
2026-04-26 15:23 28.44135 -81.31902 108 ft 18 kts 359°
2026-04-26 15:24 28.44232 -81.31902 107 ft 24 kts 359°
2026-04-26 15:24 28.44419 -81.31907 107 ft 22 kts
2026-04-26 15:24 28.44548 -81.31905 103 ft 22 kts
2026-04-26 15:24 28.44676 -81.31917 101 ft 11 kts 358°
2026-04-26 15:25 28.44714 -81.31978 102 ft 14 kts 268°
2026-04-26 15:25 28.44712 -81.32114 102 ft 14 kts 269°
2026-04-26 15:25 28.44712 -81.32135 102 ft 2 kts 270°
2026-04-26 15:25 28.44712 -81.32163 103 ft 7 kts 271°
2026-04-26 15:26 28.44699 -81.32217 102 ft 8 kts 223°
2026-04-26 15:26 28.44634 -81.32227 104 ft 20 kts 180°
2026-04-26 15:26 28.44268 -81.32225 109 ft 84 kts 179°
2026-04-26 15:26 28.43502 -81.32218 103 ft 134 kts 180°
2026-04-26 15:27 28.42041 -81.32211 306 ft 167 kts 180°
2026-04-26 15:27 28.40924 -81.32161 931 ft 160 kts 182°
2026-04-26 15:27 28.40170 -81.32142 1269 ft 161 kts 181°
2026-04-26 15:27 28.39037 -81.32084 1703 ft 165 kts 179°
2026-04-26 15:28 28.37851 -81.31995 2021 ft 178 kts 180°
2026-04-26 15:28 28.36568 -81.31930 2354 ft 191 kts 181°
2026-04-26 15:28 28.35224 -81.31874 2777 ft 201 kts 181°
2026-04-26 15:28 28.33760 -81.31791 3030 ft 223 kts 179°
2026-04-26 15:29 28.32132 -81.31649 3318 ft 247 kts 178°
2026-04-26 15:29 28.30356 -81.31488 3833 ft 262 kts 178°
2026-04-26 15:29 28.26696 -81.31597 5365 ft 266 kts 203°
2026-04-26 15:30 28.23304 -81.33380 6891 ft 272 kts 208°
2026-04-26 15:30 28.21582 -81.34315 7604 ft 276 kts 208°
2026-04-26 15:30 28.19836 -81.35267 8342 ft 280 kts 208°
2026-04-26 15:31 28.18091 -81.36217 9071 ft 284 kts 208°
2026-04-26 15:31 28.14466 -81.38184 10252 ft 300 kts 208°
2026-04-26 15:31 28.12512 -81.39249 10417 ft 323 kts 208°
2026-04-26 15:32 28.09277 -81.41006 11074 ft 339 kts 208°
2026-04-26 15:32 28.06407 -81.42556 11884 ft 345 kts 208°
2026-04-26 15:32 28.04230 -81.43729 12498 ft 348 kts 208°
2026-04-26 15:33 28.02032 -81.44915 13093 ft 352 kts 208°
2026-04-26 15:33 27.99838 -81.46100 13682 ft 356 kts 208°
2026-04-26 15:33 27.97590 -81.47314 14205 ft 360 kts 208°
2026-04-26 15:33 27.95318 -81.48540 14718 ft 363 kts 208°
2026-04-26 15:34 27.93027 -81.49777 15233 ft 366 kts 209°
2026-04-26 15:34 27.90844 -81.51252 15734 ft 366 kts 220°
2026-04-26 15:34 27.88811 -81.52998 16243 ft 369 kts 220°
2026-04-26 15:34 27.86757 -81.54762 16763 ft 372 kts 220°
2026-04-26 15:35 27.84686 -81.56535 17255 ft 376 kts 220°
2026-04-26 15:35 27.82621 -81.58300 17778 ft 379 kts 220°
2026-04-26 15:35 27.80512 -81.60101 18290 ft 382 kts 220°
2026-04-26 15:35 27.78383 -81.61919 18752 ft 385 kts 220°
2026-04-26 15:36 27.76241 -81.63749 19234 ft 387 kts 220°
2026-04-26 15:36 27.74085 -81.65590 19728 ft 390 kts 220°
2026-04-26 15:36 27.71769 -81.67221 20223 ft 397 kts 209°
2026-04-26 15:36 27.69155 -81.68309 20707 ft 405 kts 197°
2026-04-26 15:37 27.66346 -81.68759 21183 ft 413 kts 184°
2026-04-26 15:37 27.63459 -81.68531 21637 ft 419 kts 174°
2026-04-26 15:37 27.60562 -81.68074 22114 ft 422 kts 175°
2026-04-26 15:37 27.57683 -81.67630 22548 ft 425 kts 175°
2026-04-26 15:38 27.54743 -81.67186 22993 ft 428 kts 175°
2026-04-26 15:38 27.51781 -81.66740 23436 ft 431 kts 175°
2026-04-26 15:38 27.48801 -81.66291 23804 ft 434 kts 175°
2026-04-26 15:38 27.45800 -81.65841 24162 ft 436 kts 175°
2026-04-26 15:39 27.42781 -81.65392 24513 ft 439 kts 175°
2026-04-26 15:39 27.39743 -81.64937 24861 ft 442 kts 175°
2026-04-26 15:39 27.36690 -81.64476 25201 ft 444 kts 175°
2026-04-26 15:39 27.34658 -81.64167 25422 ft 446 kts 175°
2026-04-26 15:40 27.30570 -81.63545 25865 ft 449 kts 175°
2026-04-26 15:40 27.27467 -81.63072 26194 ft 451 kts 175°
2026-04-26 15:40 27.24344 -81.62598 26519 ft 454 kts 175°
2026-04-26 15:40 27.21207 -81.62122 26829 ft 456 kts 175°
2026-04-26 15:41 27.18053 -81.61647 27141 ft 459 kts 175°
2026-04-26 15:41 27.14881 -81.61170 27459 ft 461 kts 175°
2026-04-26 15:41 27.11695 -81.60691 27761 ft 463 kts 175°
2026-04-26 15:41 27.08493 -81.60208 28082 ft 465 kts 175°
2026-04-26 15:42 27.05276 -81.59720 28396 ft 468 kts 175°
2026-04-26 15:42 27.02087 -81.59235 28697 ft 470 kts 175°
2026-04-26 15:42 26.98838 -81.58746 28998 ft 472 kts 175°
2026-04-26 15:42 26.95575 -81.58258 29297 ft 474 kts 175°
2026-04-26 15:43 26.92295 -81.57768 29591 ft 477 kts 175°
2026-04-26 15:43 26.89007 -81.57274 29988 ft 476 kts 175°
2026-04-26 15:43 26.82448 -81.56299 30721 ft 475 kts 175°
2026-04-26 15:44 26.79175 -81.55809 31064 ft 475 kts 175°
2026-04-26 15:44 26.72681 -81.54834 31761 ft 474 kts 175°
2026-04-26 15:44 26.69414 -81.54349 32110 ft 473 kts 175°
2026-04-26 15:45 26.62890 -81.53374 32804 ft 473 kts 175°
2026-04-26 15:45 26.59629 -81.52888 33150 ft 473 kts 175°
2026-04-26 15:46 26.53106 -81.51916 33822 ft 473 kts 175°
2026-04-26 15:46 26.49889 -81.51437 34125 ft 473 kts 175°
2026-04-26 15:46 26.46632 -81.50951 34402 ft 472 kts 175°
2026-04-26 15:46 26.44432 -81.50624 34604 ft 472 kts 175°
2026-04-26 15:47 26.40131 -81.49985 34930 ft 471 kts 175°
2026-04-26 15:47 26.33643 -81.49021 34990 ft 470 kts 175°
2026-04-26 15:48 26.27160 -81.48060 34992 ft 470 kts 175°
2026-04-26 15:48 26.20682 -81.47100 34993 ft 470 kts 175°
2026-04-26 15:49 26.14243 -81.46145 35000 ft 470 kts 175°
2026-04-26 15:49 26.07833 -81.44648 35003 ft 473 kts 165°
2026-04-26 15:50 26.01527 -81.42518 35002 ft 473 kts 165°
2026-04-26 15:50 25.95230 -81.40389 35000 ft 473 kts 166°
2026-04-26 15:51 25.88971 -81.38288 34997 ft 473 kts 166°
2026-04-26 15:51 25.82673 -81.36189 34994 ft 472 kts 166°
2026-04-26 15:52 25.76378 -81.34086 34995 ft 472 kts 166°
2026-04-26 15:52 25.73240 -81.33035 35141 ft 471 kts 166°
2026-04-26 15:52 25.70103 -81.31984 35375 ft 471 kts 166°
2026-04-26 15:52 25.68026 -81.31287 35542 ft 471 kts 166°
2026-04-26 15:53 25.63835 -81.29885 35863 ft 470 kts 166°
2026-04-26 15:53 25.60747 -81.28853 35968 ft 470 kts 166°
2026-04-26 15:53 25.57605 -81.27804 35997 ft 473 kts 166°
2026-04-26 15:54 25.51292 -81.25691 35996 ft 474 kts 166°
2026-04-26 15:54 25.44980 -81.23590 35997 ft 474 kts 166°
2026-04-26 15:55 25.38666 -81.21497 36000 ft 473 kts 166°
2026-04-26 15:55 25.32407 -81.19413 35999 ft 473 kts 166°
2026-04-26 15:56 25.26100 -81.17317 36008 ft 473 kts 166°
2026-04-26 15:56 25.19796 -81.15228 36015 ft 473 kts 166°
2026-04-26 15:57 25.13487 -81.13139 36021 ft 473 kts 166°
2026-04-26 15:57 25.07188 -81.11051 36026 ft 473 kts 166°
2026-04-26 15:58 25.00935 -81.08983 36028 ft 472 kts 166°
2026-04-26 15:58 24.94642 -81.06909 36030 ft 472 kts 166°
2026-04-26 15:59 24.88359 -81.04838 36038 ft 471 kts 166°
2026-04-26 15:59 24.82079 -81.02766 36040 ft 471 kts 166°
2026-04-26 16:00 24.75786 -81.01158 36029 ft 464 kts 179°
2026-04-26 16:00 24.69386 -81.01188 36026 ft 459 kts 186°
2026-04-26 16:01 24.62999 -81.01424 36026 ft 459 kts 186°
2026-04-26 16:01 24.56614 -81.01657 36014 ft 459 kts 186°
2026-04-26 16:02 24.50218 -81.01731 36014 ft 461 kts 184°
2026-04-26 16:02 24.43846 -81.01612 36019 ft 461 kts 184°
2026-04-26 16:03 24.37435 -81.01490 36012 ft 461 kts 184°
2026-04-26 16:03 24.31026 -81.01422 36016 ft 460 kts 185°
2026-04-26 16:04 24.24624 -81.01387 36014 ft 460 kts 185°
2026-04-26 16:04 24.18219 -81.01348 36016 ft 460 kts 185°
2026-04-26 16:05 24.11859 -81.01298 36018 ft 460 kts 185°
2026-04-26 16:05 24.05452 -81.01239 36013 ft 460 kts 185°
2026-04-26 16:06 23.99045 -81.01172 36015 ft 461 kts 185°
2026-04-26 16:06 23.92629 -81.00958 36012 ft 462 kts 184°
2026-04-26 16:07 23.86248 -81.00644 36010 ft 462 kts 183°
2026-04-26 16:07 23.79828 -81.00333 36014 ft 462 kts 184°
2026-04-26 16:08 23.73409 -81.00058 36012 ft 461 kts 184°
2026-04-26 16:08 23.66999 -80.99792 36012 ft 461 kts 184°
2026-04-26 16:09 23.60634 -80.99529 36007 ft 461 kts 184°
2026-04-26 16:09 23.54229 -80.99256 36014 ft 461 kts 184°
2026-04-26 16:10 23.47825 -80.98987 36015 ft 460 kts 184°
2026-04-26 16:10 23.41430 -80.98719 36009 ft 460 kts 185°
2026-04-26 16:11 23.35040 -80.98455 36011 ft 459 kts 185°
2026-04-26 16:11 23.28699 -80.98193 36015 ft 459 kts 185°
2026-04-26 16:12 23.22321 -80.97915 36006 ft 458 kts 185°
2026-04-26 16:12 23.12773 -80.97508 35999 ft 457 kts 185°
2026-04-26 16:13 23.06458 -80.97253 36010 ft 456 kts 187°
2026-04-26 16:13 23.00337 -80.98168 35997 ft 436 kts 205°
2026-04-26 16:14 22.94842 -81.00691 36001 ft 427 kts 212°
2026-04-26 16:15 22.86756 -81.04761 35994 ft 427 kts 212°
2026-04-26 16:15 22.81402 -81.07453 35997 ft 427 kts 212°
2026-04-26 16:16 22.73326 -81.11518 35998 ft 427 kts 212°
2026-04-26 16:16 22.67943 -81.14221 35998 ft 426 kts 212°
2026-04-26 16:17 22.62561 -81.16916 35995 ft 426 kts 212°
2026-04-26 16:17 22.57224 -81.19598 35995 ft 426 kts 212°
2026-04-26 16:18 22.49164 -81.23642 35995 ft 426 kts 212°
2026-04-26 16:19 22.41100 -81.27674 36002 ft 426 kts 212°
2026-04-26 16:20 22.33068 -81.31684 36005 ft 426 kts 212°
2026-04-26 16:20 22.25010 -81.35726 36005 ft 425 kts 212°
2026-04-26 16:21 22.19636 -81.38407 36004 ft 425 kts 212°
2026-04-26 16:21 22.14304 -81.41059 36005 ft 425 kts 212°
2026-04-26 16:22 22.08931 -81.43725 36004 ft 425 kts 212°
2026-04-26 16:22 22.03565 -81.46393 36002 ft 425 kts 212°
2026-04-26 16:23 21.98203 -81.49069 36005 ft 425 kts 212°
2026-04-26 16:23 21.92872 -81.51719 36005 ft 425 kts 212°
2026-04-26 16:24 21.87501 -81.54385 36002 ft 425 kts 212°
2026-04-26 16:24 21.82129 -81.57044 36002 ft 425 kts 212°
2026-04-26 16:25 21.76789 -81.59682 36005 ft 425 kts 212°
2026-04-26 16:25 21.71416 -81.62346 36006 ft 425 kts 212°
2026-04-26 16:26 21.66952 -81.64559 36001 ft 425 kts 212°
2026-04-26 16:26 21.60668 -81.67663 36002 ft 425 kts 212°
2026-04-26 16:27 21.55287 -81.70314 36006 ft 425 kts 212°
2026-04-26 16:27 21.49948 -81.72951 36005 ft 425 kts 212°
2026-04-26 16:28 21.44572 -81.75611 36004 ft 425 kts 212°
2026-04-26 16:28 21.39194 -81.78256 36002 ft 425 kts 212°
2026-04-26 16:29 21.33814 -81.80900 36002 ft 425 kts 212°
2026-04-26 16:29 21.28469 -81.83527 36005 ft 425 kts 212°
2026-04-26 16:30 21.23089 -81.86174 36003 ft 425 kts 212°
2026-04-26 16:30 21.17706 -81.88816 36010 ft 426 kts 211°
2026-04-26 16:31 21.12320 -81.91459 36010 ft 426 kts 212°
2026-04-26 16:31 21.06936 -81.94098 36001 ft 426 kts 211°
2026-04-26 16:32 21.02457 -81.96290 36005 ft 426 kts 211°
2026-04-26 16:32 20.96197 -81.99358 36006 ft 426 kts 211°
2026-04-26 16:33 20.90813 -82.01999 36000 ft 426 kts 212°
2026-04-26 16:33 20.85426 -82.04632 36002 ft 426 kts 211°
2026-04-26 16:34 20.80070 -82.07245 36006 ft 426 kts 211°
2026-04-26 16:34 20.74678 -82.09877 36006 ft 426 kts 211°
2026-04-26 16:35 20.69286 -82.12508 36007 ft 426 kts 211°
2026-04-26 16:35 20.63892 -82.15135 36006 ft 426 kts 211°
2026-04-26 16:36 20.58501 -82.17762 36005 ft 426 kts 211°
2026-04-26 16:36 20.53144 -82.20367 36004 ft 426 kts 211°
2026-04-26 16:37 20.47749 -82.22983 36000 ft 426 kts 211°
2026-04-26 16:37 20.42352 -82.25596 36001 ft 426 kts 211°
2026-04-26 16:38 20.36959 -82.28213 35999 ft 426 kts 211°
2026-04-26 16:38 20.31607 -82.30819 35999 ft 426 kts 211°
2026-04-26 16:39 20.26214 -82.33438 36000 ft 426 kts 211°
2026-04-26 16:39 20.20812 -82.36042 35999 ft 426 kts 211°
2026-04-26 16:40 20.15413 -82.38646 35995 ft 426 kts 211°
2026-04-26 16:40 20.10029 -82.41197 35993 ft 430 kts 206°
2026-04-26 16:41 20.04156 -82.42738 35995 ft 437 kts 199°
2026-04-26 16:41 19.98207 -82.44081 35991 ft 437 kts 199°
2026-04-26 16:42 19.92258 -82.45434 35993 ft 437 kts 199°
2026-04-26 16:42 19.86309 -82.46787 35990 ft 437 kts 199°
2026-04-26 16:43 19.80400 -82.48132 35994 ft 437 kts 199°
2026-04-26 16:43 19.74446 -82.49477 35995 ft 437 kts 199°
2026-04-26 16:44 19.68493 -82.50825 35992 ft 437 kts 199°
2026-04-26 16:44 19.62539 -82.52176 35995 ft 437 kts 199°
2026-04-26 16:45 19.56588 -82.53523 35995 ft 437 kts 198°
2026-04-26 16:45 19.50674 -82.54855 35994 ft 437 kts 198°
2026-04-26 16:46 19.44722 -82.56195 35993 ft 437 kts 198°
2026-04-26 16:46 19.38766 -82.57535 35992 ft 438 kts 198°
2026-04-26 16:47 19.32807 -82.58881 35994 ft 438 kts 198°
2026-04-26 16:47 19.26887 -82.60221 35995 ft 438 kts 198°
2026-04-26 16:48 19.20922 -82.61564 35997 ft 438 kts 198°
2026-04-26 16:48 19.14955 -82.62903 35995 ft 438 kts 198°
2026-04-26 16:49 19.08990 -82.64244 35992 ft 438 kts 198°
2026-04-26 16:49 19.03066 -82.65574 35990 ft 438 kts 198°
2026-04-26 16:50 18.97105 -82.66908 35983 ft 438 kts 198°
2026-04-26 16:50 18.91143 -82.68248 35984 ft 438 kts 198°
2026-04-26 16:51 18.85184 -82.69588 35979 ft 438 kts 198°
2026-04-26 16:51 18.79262 -82.70916 35981 ft 438 kts 198°
2026-04-26 16:52 18.74266 -82.72039 35979 ft 438 kts 198°
2026-04-26 16:52 18.67330 -82.73594 35977 ft 439 kts 198°
2026-04-26 16:53 18.61355 -82.74931 35984 ft 439 kts 198°
2026-04-26 16:53 18.55375 -82.76265 35989 ft 440 kts 198°
2026-04-26 16:54 18.49426 -82.77591 35990 ft 440 kts 198°
2026-04-26 16:54 18.43441 -82.78927 35990 ft 440 kts 198°
2026-04-26 16:55 18.37452 -82.80265 35987 ft 440 kts 198°
2026-04-26 16:55 18.31463 -82.81599 35988 ft 440 kts 198°
2026-04-26 16:56 18.22511 -82.83582 36000 ft 440 kts 196°
2026-04-26 16:57 18.16513 -82.84920 35994 ft 441 kts 196°
2026-04-26 16:57 18.07503 -82.86918 35993 ft 441 kts 196°
2026-04-26 16:58 18.02514 -82.88029 35995 ft 441 kts 196°
2026-04-26 16:59 17.92538 -82.90238 35988 ft 441 kts 196°
2026-04-26 17:00 17.80539 -82.92889 35986 ft 440 kts 196°
2026-04-26 17:00 17.71583 -82.94868 35980 ft 440 kts 196°
2026-04-26 17:01 17.65587 -82.96195 35981 ft 440 kts 196°
2026-04-26 17:01 17.59595 -82.97527 35982 ft 440 kts 196°
2026-04-26 17:02 17.53601 -82.98848 35986 ft 440 kts 195°
2026-04-26 17:02 17.47649 -83.00160 35981 ft 440 kts 195°
2026-04-26 17:03 17.41659 -83.01478 35981 ft 440 kts 195°
2026-04-26 17:03 17.35671 -83.02798 35980 ft 440 kts 195°
2026-04-26 17:04 17.29687 -83.04117 35980 ft 439 kts 196°
2026-04-26 17:04 17.23707 -83.05438 35981 ft 439 kts 195°
2026-04-26 17:05 17.17765 -83.06739 35980 ft 439 kts 195°
2026-04-26 17:05 17.11788 -83.08045 35976 ft 439 kts 195°
2026-04-26 17:06 17.05814 -83.09364 35972 ft 439 kts 195°
2026-04-26 17:06 16.99838 -83.10673 35973 ft 439 kts 195°
2026-04-26 17:07 16.93911 -83.11978 35973 ft 438 kts 195°
2026-04-26 17:07 16.87943 -83.13291 35972 ft 438 kts 195°
2026-04-26 17:08 16.81972 -83.14588 35968 ft 438 kts 195°
2026-04-26 17:08 16.76006 -83.15891 35970 ft 438 kts 195°
2026-04-26 17:09 16.71053 -83.16978 35969 ft 438 kts 195°
2026-04-26 17:09 16.64125 -83.18501 35967 ft 438 kts 195°
2026-04-26 17:10 16.58161 -83.19800 35966 ft 438 kts 195°
2026-04-26 17:10 16.52199 -83.21096 35970 ft 438 kts 195°
2026-04-26 17:11 16.46240 -83.22393 35965 ft 438 kts 195°
2026-04-26 17:11 16.40318 -83.23687 35967 ft 437 kts 195°
2026-04-26 17:12 16.31383 -83.25630 35965 ft 437 kts 195°
2026-04-26 17:13 16.22446 -83.27577 35961 ft 437 kts 195°
2026-04-26 17:14 16.13550 -83.29514 35962 ft 437 kts 195°
2026-04-26 17:14 16.04611 -83.31446 35955 ft 438 kts 195°
2026-04-26 17:15 15.95698 -83.33339 35956 ft 438 kts 195°
2026-04-26 17:16 15.89723 -83.34594 35956 ft 438 kts 195°
2026-04-26 17:16 15.83746 -83.35846 35956 ft 438 kts 195°
2026-04-26 17:17 15.77769 -83.37102 35953 ft 438 kts 195°
2026-04-26 17:17 15.71789 -83.38369 35952 ft 438 kts 195°
2026-04-26 17:18 15.65849 -83.39619 35952 ft 439 kts 194°
2026-04-26 17:18 15.59863 -83.40867 35952 ft 439 kts 194°
2026-04-26 17:19 15.50883 -83.42749 35952 ft 439 kts 195°
2026-04-26 17:19 15.44936 -83.44004 35950 ft 439 kts 195°
2026-04-26 17:20 15.40933 -83.44850 35951 ft 439 kts 194°
2026-04-26 17:20 15.32957 -83.46515 35947 ft 439 kts 194°
2026-04-26 17:21 15.26962 -83.47763 35943 ft 439 kts 194°
2026-04-26 17:21 15.20967 -83.49012 35940 ft 439 kts 194°
2026-04-26 17:22 15.15013 -83.50256 35938 ft 439 kts 194°
2026-04-26 17:22 15.09018 -83.51512 35935 ft 439 kts 194°
2026-04-26 17:23 15.03025 -83.52770 35928 ft 440 kts 194°
2026-04-26 17:23 14.97030 -83.54022 35928 ft 440 kts 194°
2026-04-26 17:24 14.91073 -83.55264 35922 ft 440 kts 194°
2026-04-26 17:24 14.85076 -83.56515 35922 ft 440 kts 194°
2026-04-26 17:25 14.79077 -83.57766 35919 ft 440 kts 194°
2026-04-26 17:25 14.73078 -83.59017 35917 ft 440 kts 194°
2026-04-26 17:26 14.67117 -83.60260 35914 ft 440 kts 194°
2026-04-26 17:26 14.61117 -83.61510 35913 ft 440 kts 194°
2026-04-26 17:27 14.55110 -83.62756 35915 ft 440 kts 194°
2026-04-26 17:27 14.49107 -83.64005 35912 ft 440 kts 194°
2026-04-26 17:28 14.43138 -83.65244 35912 ft 440 kts 194°
2026-04-26 17:28 14.37126 -83.66491 35912 ft 440 kts 194°
2026-04-26 17:29 14.32130 -83.67524 35910 ft 441 kts 193°
2026-04-26 17:29 14.25101 -83.68984 35919 ft 441 kts 193°
2026-04-26 17:30 14.19131 -83.70229 35907 ft 441 kts 193°
2026-04-26 17:30 14.13117 -83.71476 35907 ft 441 kts 193°
2026-04-26 17:31 14.07104 -83.72722 35903 ft 441 kts 193°
2026-04-26 17:31 14.01091 -83.73971 35902 ft 441 kts 193°
2026-04-26 17:32 13.95116 -83.75202 35897 ft 441 kts 193°
2026-04-26 17:32 13.89100 -83.76443 35896 ft 441 kts 193°
2026-04-26 17:33 13.83078 -83.77684 35898 ft 441 kts 193°
2026-04-26 17:34 13.74037 -83.79555 35900 ft 442 kts 193°
2026-04-26 17:34 13.68053 -83.80794 35896 ft 442 kts 193°
2026-04-26 17:35 13.62025 -83.82043 35900 ft 442 kts 193°
2026-04-26 17:35 13.55993 -83.83287 35902 ft 442 kts 193°
2026-04-26 17:36 13.49958 -83.84523 35897 ft 442 kts 193°
2026-04-26 17:36 13.43957 -83.85755 35905 ft 443 kts 193°
2026-04-26 17:37 13.37916 -83.86998 35912 ft 443 kts 193°
2026-04-26 17:37 13.31875 -83.88247 35905 ft 443 kts 193°
2026-04-26 17:38 13.22807 -83.90117 35904 ft 443 kts 193°
2026-04-26 17:38 13.16795 -83.91352 35910 ft 443 kts 193°
2026-04-26 17:39 13.10747 -83.92591 35909 ft 443 kts 193°
2026-04-26 17:39 13.04699 -83.93834 35914 ft 443 kts 193°
2026-04-26 17:40 13.00693 -83.94658 35903 ft 443 kts 193°
2026-04-26 17:40 12.92633 -83.96307 35920 ft 444 kts 193°
2026-04-26 17:41 12.86583 -83.97544 35907 ft 443 kts 193°
2026-04-26 17:41 12.80530 -83.98784 35911 ft 444 kts 193°
2026-04-26 17:42 12.74518 -84.00017 35909 ft 444 kts 193°
2026-04-26 17:42 12.68463 -84.01259 35919 ft 444 kts 193°
2026-04-26 17:43 12.62410 -84.02498 35911 ft 444 kts 193°
2026-04-26 17:43 12.56358 -84.03737 35920 ft 444 kts 193°
2026-04-26 17:44 12.50343 -84.04967 35914 ft 444 kts 193°
2026-04-26 17:44 12.44290 -84.06205 35919 ft 444 kts 193°
2026-04-26 17:45 12.38235 -84.07438 35914 ft 443 kts 193°
2026-04-26 17:45 12.32183 -84.08670 35910 ft 443 kts 193°
2026-04-26 17:46 12.26173 -84.09895 35905 ft 443 kts 193°
2026-04-26 17:46 12.20123 -84.11129 35911 ft 443 kts 193°
2026-04-26 17:47 12.16075 -84.11953 35913 ft 443 kts 193°
2026-04-26 17:47 12.08029 -84.13600 35906 ft 443 kts 193°
2026-04-26 17:48 12.02028 -84.14824 35911 ft 443 kts 193°
2026-04-26 17:48 11.95987 -84.16053 35909 ft 443 kts 193°
2026-04-26 17:49 11.89941 -84.17284 35915 ft 443 kts 193°
2026-04-26 17:49 11.83924 -84.18517 35575 ft 437 kts 193°
2026-04-26 17:50 11.80986 -84.19117 35344 ft 436 kts 193°
2026-04-26 17:50 11.78014 -84.19719 35108 ft 435 kts 193°
2026-04-26 17:50 11.75053 -84.20319 34874 ft 433 kts 193°
2026-04-26 17:50 11.72102 -84.20915 34644 ft 431 kts 193°
2026-04-26 17:51 11.69166 -84.21510 34409 ft 429 kts 193°
2026-04-26 17:51 11.66244 -84.22103 34187 ft 428 kts 193°
2026-04-26 17:51 11.63332 -84.22693 33962 ft 426 kts 193°
2026-04-26 17:51 11.60439 -84.23285 33710 ft 424 kts 193°
2026-04-26 17:52 11.57594 -84.23869 33453 ft 422 kts 193°
2026-04-26 17:52 11.54719 -84.24456 33197 ft 421 kts 193°
2026-04-26 17:52 11.51852 -84.25036 32946 ft 419 kts 193°
2026-04-26 17:52 11.48995 -84.25610 32685 ft 417 kts 193°
2026-04-26 17:53 11.46150 -84.26181 32430 ft 416 kts 193°
2026-04-26 17:53 11.43318 -84.26754 32200 ft 414 kts 193°
2026-04-26 17:53 11.40498 -84.27327 31953 ft 413 kts 193°
2026-04-26 17:54 11.34889 -84.28465 31468 ft 409 kts 193°
2026-04-26 17:54 11.32141 -84.29021 31235 ft 407 kts 193°
2026-04-26 17:54 11.29366 -84.29584 30997 ft 406 kts 193°
2026-04-26 17:54 11.26604 -84.30146 30765 ft 404 kts 193°
2026-04-26 17:55 11.23852 -84.30705 30528 ft 402 kts 193°
2026-04-26 17:55 11.21109 -84.31261 30297 ft 401 kts 193°
2026-04-26 17:55 11.18381 -84.31811 30072 ft 400 kts 193°
2026-04-26 17:55 11.15669 -84.32359 29766 ft 395 kts 193°
2026-04-26 17:56 11.12974 -84.32901 29338 ft 394 kts 193°
2026-04-26 17:56 11.07643 -84.33978 28509 ft 392 kts 193°
2026-04-26 17:57 11.02306 -84.35064 27636 ft 392 kts 193°
2026-04-26 17:57 10.99647 -84.35601 27105 ft 387 kts 193°
2026-04-26 17:57 10.97019 -84.36130 26597 ft 383 kts 193°
2026-04-26 17:57 10.94409 -84.36658 26095 ft 381 kts 192°
2026-04-26 17:58 10.86819 -84.38643 24646 ft 376 kts 199°
2026-04-26 17:59 10.81825 -84.40310 23666 ft 380 kts 199°
2026-04-26 17:59 10.79310 -84.41145 23142 ft 381 kts 199°
2026-04-26 17:59 10.76784 -84.41982 22570 ft 383 kts 199°
2026-04-26 17:59 10.74247 -84.42822 22023 ft 384 kts 199°
2026-04-26 18:00 10.72567 -84.43380 21661 ft 384 kts 199°
2026-04-26 18:00 10.69161 -84.44513 20947 ft 385 kts 199°
2026-04-26 18:00 10.66645 -84.45350 20436 ft 386 kts 199°
2026-04-26 18:00 10.64092 -84.46198 19910 ft 386 kts 199°
2026-04-26 18:01 10.61542 -84.47046 19409 ft 386 kts 199°
2026-04-26 18:01 10.58988 -84.47894 18906 ft 386 kts 198°
2026-04-26 18:01 10.56435 -84.48740 18422 ft 386 kts 198°
2026-04-26 18:01 10.53891 -84.49582 17879 ft 381 kts 198°
2026-04-26 18:02 10.51414 -84.50402 17326 ft 369 kts 198°
2026-04-26 18:02 10.50625 -84.50663 17151 ft 365 kts 198°
2026-04-26 18:02 10.46699 -84.51964 16255 ft 349 kts 198°
2026-04-26 18:02 10.44423 -84.52717 15895 ft 337 kts 198°
2026-04-26 18:03 10.42219 -84.53449 15511 ft 332 kts 198°
2026-04-26 18:03 10.40032 -84.54176 15204 ft 329 kts 198°
2026-04-26 18:03 10.37862 -84.54899 14900 ft 327 kts 198°
2026-04-26 18:03 10.35703 -84.55619 14570 ft 326 kts 198°
2026-04-26 18:04 10.33555 -84.56332 14269 ft 324 kts 198°
2026-04-26 18:04 10.32139 -84.56802 14069 ft 322 kts 198°
2026-04-26 18:04 10.30017 -84.57505 13853 ft 320 kts 198°
2026-04-26 18:05 10.25086 -84.59140 13702 ft 320 kts 198°
2026-04-26 18:05 10.22976 -84.59840 13328 ft 318 kts 198°
2026-04-26 18:05 10.21584 -84.60302 13111 ft 317 kts 198°
2026-04-26 18:05 10.19135 -84.61113 12720 ft 315 kts 197°
2026-04-26 18:06 10.19089 -84.61128 12712 ft 315 kts 197°
2026-04-26 18:06 10.16986 -84.61704 12383 ft 312 kts 187°
2026-04-26 18:06 10.14837 -84.61751 12052 ft 308 kts 172°
2026-04-26 18:06 10.12776 -84.61240 11836 ft 303 kts 157°
2026-04-26 18:07 10.10315 -84.59908 11477 ft 305 kts 148°
2026-04-26 18:07 10.08477 -84.58802 10978 ft 309 kts 148°
2026-04-26 18:07 10.07236 -84.58051 10638 ft 304 kts 147°
2026-04-26 18:07 10.06042 -84.57326 10307 ft 300 kts 148°
2026-04-26 18:08 10.03714 -84.55914 9890 ft 285 kts 148°
2026-04-26 18:08 10.02071 -84.54919 9842 ft 267 kts 147°
2026-04-26 18:08 10.00519 -84.53981 9851 ft 252 kts 147°
2026-04-26 18:08 9.98962 -84.53223 9852 ft 249 kts 160°
2026-04-26 18:09 9.97273 -84.52844 9852 ft 250 kts 173°
2026-04-26 18:09 9.95540 -84.52713 9857 ft 250 kts 172°
2026-04-26 18:09 9.93817 -84.52488 9740 ft 250 kts 168°
2026-04-26 18:09 9.92132 -84.52162 9425 ft 250 kts 165°
2026-04-26 18:10 9.90493 -84.51606 9101 ft 248 kts 146°
2026-04-26 18:10 9.89365 -84.50337 8794 ft 244 kts 113°
2026-04-26 18:10 9.89113 -84.48673 8502 ft 239 kts 81°
2026-04-26 18:10 9.89554 -84.47033 8032 ft 250 kts 69°
2026-04-26 18:11 9.90203 -84.45367 7505 ft 254 kts 68°
2026-04-26 18:11 9.90835 -84.43731 7163 ft 241 kts 69°
2026-04-26 18:11 9.91421 -84.42170 6875 ft 235 kts 69°
2026-04-26 18:11 9.91999 -84.40627 6590 ft 234 kts 69°
2026-04-26 18:12 9.92567 -84.39109 6327 ft 231 kts 68°
2026-04-26 18:12 9.93119 -84.37637 6044 ft 216 kts 69°
2026-04-26 18:12 9.93646 -84.36229 5757 ft 212 kts 69°
2026-04-26 18:12 9.94159 -84.34862 5490 ft 198 kts 68°
2026-04-26 18:13 9.94636 -84.33586 5261 ft 190 kts 68°
2026-04-26 18:13 9.95088 -84.32379 5028 ft 176 kts 68°
2026-04-26 18:13 9.95510 -84.31253 4825 ft 166 kts 68°
2026-04-26 18:13 9.95777 -84.30540 4681 ft 162 kts 68°
2026-04-26 18:14 9.96302 -84.29138 4412 ft 159 kts 68°
2026-04-26 18:14 9.96695 -84.28088 4209 ft 159 kts 68°
2026-04-26 18:14 9.97082 -84.27056 4023 ft 157 kts 69°
2026-04-26 18:14 9.97474 -84.26007 3819 ft 161 kts 69°
2026-04-26 18:15 9.97872 -84.24944 3599 ft 162 kts 71°
2026-04-26 18:15 9.98270 -84.23882 3361 ft 161 kts 69°
2026-04-26 18:15 9.98668 -84.22818 3164 ft 159 kts 68°
2026-04-26 18:15 9.99057 -84.21780 2980 ft 148 kts 69°
2026-04-26 18:16 9.99361 -84.20967 3000 ft 85 kts 69°
2026-04-26 18:16 9.99472 -84.20672 3016 ft 8 kts 69°
2026-04-26 18:16 9.99509 -84.20574 3017 ft 16 kts 69°
2026-04-26 18:17 9.99547 -84.20472 3021 ft 15 kts 70°
2026-04-26 18:17 9.99583 -84.20429 3024 ft 7 kts 11°
2026-04-26 18:17 9.99627 -84.20445 3026 ft 7 kts 320°
2026-04-26 18:17 9.99638 -84.20454 3024 ft 2 kts 346°
2026-04-26 18:18 9.99652 -84.20448 3024 ft 1 kts 59°
2026-04-26 18:18 9.99654 -84.20440 3026 ft 1 kts 69°
2026-04-26 18:18 9.99661 -84.20422 3024 ft 5 kts 69°
2026-04-26 18:18 9.99672 -84.20393 3029 ft 1 kts 69°
2026-04-26 18:24 9.99673 -84.20393 3025 ft 0 kts 58°
2026-04-26 18:24 9.99678 -84.20394 3025 ft 1 kts
2026-04-26 18:25 9.99681 -84.20398 3029 ft 1 kts 322°
2026-04-26 18:25 9.99704 -84.20412 3025 ft 5 kts 340°
2026-04-26 18:25 9.99710 -84.20414 3025 ft 2 kts 341°
2026-04-26 18:25 9.99718 -84.20417 3026 ft 0 kts 343°
2026-04-26 18:26 9.99720 -84.20418 3026 ft 0 kts 341°